Theta_e
292 293 293 293 294 294 294 294 295 295 296 296 296 297 298 298 299 297 294 297 290 282 281 285 286 282 281 280 276 276 281 281 277 279 277 273 267 272 269 273 274 275 274 271 275 274 271 282 280 278 281 283 285 285
291 292 292 293 293 293 294 294 294 294 295 295 296 296 296 297 298 297 291 297 297 287 285 288 289 291 289 287 282 278 279 275 280 276 272 272 269 267 269 267 277 271 276 272 275 276 283 282 283 286 286 283 283 285
291 291 291 292 293 293 293 294 294 294 294 295 295 295 296 296 297 296 291 294 293 285 285 285 284 287 290 290 291 281 278 283 281 282 275 271 270 275 267 268 271 276 279 275 275 278 279 281 282 285 284 286 285 284
290 290 291 291 292 292 293 293 293 294 294 294 294 295 295 295 296 296 290 293 291 285 281 283 286 286 290 290 290 288 287 286 284 279 273 269 269 278 272 276 276 278 279 275 275 279 279 281 282 283 283 283 283 283
290 290 290 291 291 292 292 293 293 293 293 293 294 294 295 295 295 293 289 292 294 286 279 279 279 285 288 289 287 287 287 282 279 279 275 270 270 272 268 273 270 278 277 275 273 279 280 280 282 282 281 280 280 280
290 290 291 291 291 291 292 292 292 293 293 293 293 294 294 295 295 288 281 288 292 292 282 273 282 277 283 287 287 286 286 280 277 276 271 272 278 277 267 263 276 278 280 280 278 279 281 282 281 277 278 278 278 277
290 291 292 292 292 292 292 292 292 292 292 293 293 293 294 294 290 283 281 282 293 292 282 276 275 278 284 284 282 282 283 279 278 273 273 276 278 278 267 266 277 277 279 278 278 278 277 278 277 276 275 275 274 273
291 292 292 292 291 291 291 292 292 292 292 292 293 293 294 294 292 286 289 293 293 286 283 275 273 277 284 281 280 283 281 282 278 274 272 274 275 270 264 274 279 278 278 278 275 273 274 272 273 272 270 270 268 270
291 291 291 292 292 291 291 291 291 291 292 292 292 293 290 287 281 281 292 293 292 284 277 274 272 271 284 281 280 280 281 276 279 275 275 276 268 269 274 277 276 274 274 273 268 267 267 268 268 267 266 265 264 265
291 288 290 292 292 291 290 291 291 292 292 293 290 284 278 280 291 291 285 281 281 282 280 274 273 272 281 278 276 274 277 274 271 273 277 274 267 277 275 268 269 268 266 265 264 265 260 260 263 264 263 263 263 262
290 290 290 290 291 291 290 291 291 291 293 286 281 278 278 291 282 280 275 275 274 274 277 277 275 271 278 271 271 276 273 273 268 271 268 265 262 275 266 264 264 264 263 262 261 262 261 260 260 260 260 259 259 257
290 290 290 290 291 292 290 290 291 288 283 284 283 282 282 278 276 273 271 270 265 268 275 274 273 279 277 280 275 275 273 273 266 269 265 264 268 264 263 261 259 259 258 256 255 256 258 259 258 257 256 255 254 254
289 289 288 289 289 292 292 291 291 291 290 285 280 276 275 274 269 267 260 259 264 267 272 271 275 277 278 279 276 274 270 269 270 268 263 265 261 257 255 256 253 253 252 251 250 250 252 253 252 251 251 251 251 251
288 289 287 288 287 291 292 292 292 290 282 275 274 269 269 266 259 267 262 269 268 274 274 277 273 275 276 273 273 268 269 270 265 264 261 263 258 256 253 252 252 251 251 252 250 251 251 251 250 248 247 247 248 249
286 286 285 286 285 289 293 292 290 268 268 269 270 266 259 255 251 251 257 261 263 269 278 275 270 274 272 271 272 268 265 265 266 265 265 256 254 253 251 250 249 249 249 249 248 248 250 250 249 248 247 247 247 248
283 280 279 285 283 286 293 283 270 266 260 259 255 255 254 254 253 251 254 257 262 268 279 276 272 270 269 270 267 265 263 262 265 261 251 253 252 250 249 248 248 247 247 246 245 247 249 248 248 247 245 246 247 248
279 273 282 282 281 278 278 267 264 258 257 252 247 248 247 247 253 255 255 258 260 261 273 271 268 268 272 266 260 259 263 260 249 248 248 249 250 248 247 247 246 245 245 244 244 245 246 246 245 246 246 247 247 248
265 274 281 280 273 271 265 264 259 254 249 252 252 252 254 251 248 254 255 257 257 265 268 268 270 267 265 264 263 255 249 248 250 251 251 248 245 244 246 247 243 244 244 243 243 243 243 246 246 246 246 247 249 250
273 276 278 277 272 264 262 259 259 253 252 252 254 255 255 254 256 256 255 256 258 260 264 264 265 259 254 250 249 249 252 251 252 251 249 247 248 245 244 244 245 244 244 242 242 243 243 243 245 246 247 248 248 249
276 276 276 273 269 261 258 256 261 257 253 254 255 254 254 254 255 254 254 254 257 257 252 253 250 247 249 249 248 252 251 253 251 248 246 247 245 242 244 245 245 243 243 242 242 245 244 245 246 246 247 247 247 247
267 268 269 262 258 257 255 255 255 256 255 254 253 254 255 254 253 251 251 252 251 247 248 246 246 246 246 246 245 247 248 251 248 249 247 245 244 245 243 242 243 242 243 242 244 244 244 244 246 248 247 247 248 249
260 268 257 261 257 254 253 253 254 254 253 250 252 251 249 250 249 250 251 249 246 245 245 245 244 244 246 244 243 242 242 240 241 245 248 248 246 245 244 242 245 241 241 242 242 243 244 246 248 249 249 250 252 252
261 261 255 253 253 252 248 252 250 249 250 249 248 249 247 246 247 251 245 244 244 245 243 242 241 240 241 240 240 240 239 241 241 240 240 239 239 238 242 240 241 243 242 243 244 245 246 251 251 250 251 252 251 251
255 247 246 245 247 243 245 245 247 246 247 246 245 244 243 242 246 246 242 239 242 242 241 238 238 241 241 241 239 238 238 237 238 238 237 242 242 240 239 239 239 240 243 245 246 246 247 247 251 250 250 250 250 250
252 241 243 240 242 243 241 241 242 245 242 243 246 244 243 239 244 242 241 239 237 237 238 235 237 238 239 236 237 237 238 238 241 240 239 238 238 240 241 241 242 243 243 245 244 245 245 247 248 249 250 249 249 249
239 236 238 233 238 240 237 239 238 238 238 243 242 242 242 245 249 246 241 238 237 237 237 238 239 239 239 237 239 240 240 237 238 240 240 240 242 242 240 241 242 245 244 243 245 246 248 249 249 249 249 249 248 247
239 236 238 237 237 237 237 236 235 238 236 238 236 241 243 248 247 243 239 239 239 238 237 237 238 239 239 239 238 237 236 237 241 242 240 241 242 243 245 246 247 249 248 247 247 248 249 249 248 248 247 247 246 245
237 236 237 236 236 233 234 233 234 235 235 236 235 239 242 243 244 241 241 241 237 236 237 236 237 238 238 239 238 239 240 241 243 245 246 247 248 249 249 250 250 253 250 250 249 248 247 248 248 247 246 246 246 245
237 235 236 236 235 237 235 235 235 235 237 233 237 238 238 239 237 236 239 239 234 237 237 238 239 237 239 239 241 241 242 243 245 247 248 249 249 250 250 250 250 250 249 249 251 251 248 247 247 247 247 246 246 244
236 233 236 234 237 237 237 235 234 232 232 235 235 238 238 238 238 235 235 235 238 238 237 236 236 238 239 240 240 241 240 242 245 247 247 248 251 250 250 250 250 250 250 249 249 249 251 250 248 246 246 245 244 243
233 232 235 234 237 234 233 231 230 231 231 231 229 234 235 235 238 235 239 237 236 233 236 237 236 236 241 239 238 239 243 243 246 248 249 249 250 250 250 251 251 250 249 249 248 247 247 246 245 245 244 244 243 243
233 233 237 239 238 234 231 231 230 232 231 232 234 230 234 235 237 240 240 238 236 236 241 239 238 243 243 243 241 242 246 241 241 245 246 249 250 251 251 251 250 248 248 247 247 247 246 245 244 244 244 243 242 242
232 231 230 234 237 237 234 234 234 236 234 233 234 231 231 235 240 243 242 242 243 243 243 243 244 240 241 243 244 244 246 244 244 252 254 254 253 252 250 249 248 247 246 246 246 246 245 244 243 243 242 242 243 244
Wind_Speed
15 20 19 21 22 19 18 18 18 16 17 18 18 19 20 19 17 7 1 11 9 4 4 8 10 6 4 5 6 4 4 2 2 4 4 4 4 7 3 4 8 9 8 5 4 5 13 6 4 10 6 3 6 6
15 16 18 21 21 22 22 22 19 19 19 18 19 19 19 19 20 16 2 6 9 4 3 7 11 14 13 11 8 2 4 5 5 4 1 3 1 1 4 4 2 2 8 8 10 9 4 3 5 5 5 4 3 3
19 18 17 19 19 22 21 22 22 22 22 20 21 20 19 19 20 18 4 2 5 4 2 3 13 7 3 8 10 7 2 4 3 4 5 3 5 4 5 6 2 4 4 3 5 6 5 1 2 5 3 4 2 1
21 22 22 21 21 21 22 24 23 23 23 22 23 23 22 20 21 18 4 5 2 1 4 5 2 11 7 7 11 6 9 4 6 3 3 4 4 2 4 3 6 6 7 5 3 4 1 2 3 6 4 2 5 7
24 25 27 25 24 24 24 23 25 23 23 22 23 24 23 24 22 12 3 5 6 5 2 1 4 5 8 12 9 9 12 7 4 3 2 4 2 5 2 3 5 6 8 6 5 5 4 5 6 3 5 6 5 4
26 28 30 31 29 28 27 27 27 25 25 25 24 23 24 23 24 4 2 5 9 6 3 3 2 2 5 12 14 13 10 4 4 6 4 2 3 4 4 5 10 6 4 5 5 3 7 7 2 5 3 4 5 7
28 31 33 31 31 31 30 31 28 26 28 26 25 22 27 26 11 7 5 3 18 9 3 3 3 4 8 6 3 3 2 3 5 3 3 4 3 5 3 7 3 9 9 5 3 4 3 4 3 2 3 4 5 6
32 27 25 27 31 31 28 30 29 27 28 28 25 24 28 26 19 11 9 4 10 8 3 3 2 3 10 6 6 2 4 2 1 5 2 4 2 3 3 8 11 8 7 7 6 3 1 1 1 1 3 4 6 7
31 16 29 28 28 29 29 28 28 26 27 26 27 26 15 11 5 5 12 17 5 6 6 4 6 5 7 3 4 3 3 4 3 4 5 6 4 7 13 15 6 8 8 6 4 3 3 4 2 1 2 1 4 7
24 7 18 28 25 29 27 26 27 28 25 28 19 8 6 6 12 13 6 8 8 5 2 2 1 5 10 3 3 5 3 4 4 4 7 4 6 13 5 5 7 8 8 8 4 3 2 3 4 2 3 3 4 7
15 21 22 26 14 25 23 23 22 20 29 11 5 4 2 21 4 4 5 5 4 4 5 5 6 3 3 7 5 1 4 4 6 5 7 4 5 15 9 9 6 7 7 5 3 3 2 3 4 4 4 4 5 6
19 21 26 24 21 24 24 22 17 9 3 7 7 7 4 4 4 6 5 2 4 7 4 6 5 4 2 4 4 4 4 5 7 7 5 5 8 5 11 9 8 7 6 6 3 2 1 3 1 3 4 5 5 6
24 19 27 27 25 17 26 24 22 16 18 5 4 5 5 4 7 8 7 5 4 3 5 5 6 4 2 2 4 4 6 5 10 4 6 8 3 4 6 8 8 6 6 6 3 2 1 2 2 1 4 4 6 6
25 19 24 27 28 13 29 28 26 22 5 4 6 7 5 4 5 5 6 10 4 7 8 12 7 4 3 3 3 6 3 6 4 6 8 5 8 10 7 5 8 7 6 6 4 3 1 1 3 3 3 4 4 5
24 15 21 27 27 18 31 30 24 9 5 4 2 5 5 2 1 3 1 0 2 4 10 5 3 4 3 4 3 5 4 5 5 8 6 3 8 13 11 6 7 5 5 5 4 3 2 1 1 2 3 4 3 3
22 8 13 29 24 22 26 24 10 5 6 4 7 4 3 3 1 3 2 2 3 4 8 2 3 5 5 6 6 6 9 8 7 5 2 8 10 6 9 6 6 5 5 4 4 4 3 3 4 3 3 3 3 2
12 5 25 24 15 21 25 10 5 9 6 5 2 1 1 2 1 1 1 2 6 4 8 4 5 4 5 4 3 5 8 4 2 2 1 5 8 8 7 6 6 6 5 4 4 3 3 0 3 4 2 4 2 3
1 7 23 20 6 7 5 7 7 7 8 3 3 2 1 1 2 1 2 2 3 3 1 3 4 3 5 8 4 4 3 1 3 4 5 5 6 4 4 6 4 4 4 4 4 3 3 5 5 1 2 2 1 3
5 12 20 18 8 7 6 7 4 6 3 1 2 2 1 0 0 2 2 3 6 4 1 0 5 3 2 1 1 1 6 2 5 4 3 4 5 6 5 5 5 4 5 4 3 3 2 3 3 1 1 1 1 1
6 17 19 18 9 6 7 5 3 5 3 2 2 2 2 1 3 3 3 3 2 2 8 6 2 1 1 2 2 2 3 5 8 6 3 1 1 3 3 4 3 4 4 4 3 4 3 2 3 1 1 1 1 0
7 11 15 8 6 9 7 3 5 3 2 3 2 3 2 2 2 3 3 5 6 6 4 2 2 1 1 1 2 1 4 3 3 3 4 3 1 3 2 2 3 3 3 2 4 3 2 2 2 1 1 1 0 0
3 13 5 8 7 6 7 5 3 2 2 2 2 1 3 2 3 4 4 6 6 3 2 1 1 2 2 4 3 4 2 2 2 3 4 8 3 3 2 3 4 2 3 3 3 4 2 1 1 1 1 1 0 0
10 7 7 10 8 9 3 4 5 6 4 3 3 4 4 4 3 5 6 3 2 1 1 2 1 0 1 2 2 3 4 4 4 3 3 3 3 1 3 2 3 4 3 2 2 3 2 3 1 1 1 0 1 1
13 11 10 8 8 2 3 6 4 4 4 5 5 4 5 4 6 5 4 3 2 3 2 2 1 2 3 4 3 2 3 2 3 2 1 4 3 1 1 2 2 2 3 3 3 3 2 1 1 0 0 1 2 2
10 14 8 9 5 7 8 6 7 5 4 4 3 4 4 4 4 5 1 3 3 2 2 3 3 3 3 1 2 2 2 2 3 2 3 2 3 2 2 2 1 1 1 3 2 2 2 2 2 1 1 2 4 5
13 6 6 2 5 5 2 4 4 2 2 3 3 3 3 2 4 2 2 3 3 3 3 3 3 1 2 2 2 0 3 2 4 2 3 4 4 4 4 3 1 3 3 3 4 3 3 3 3 4 3 4 5 5
8 6 4 0 2 2 4 2 1 4 5 3 3 5 3 4 2 3 3 2 2 3 3 3 3 3 2 2 3 3 2 2 3 3 3 3 3 3 3 3 3 3 4 4 3 3 3 4 4 4 3 3 4 4
3 3 4 5 4 1 5 3 4 2 2 2 2 3 3 4 4 3 4 2 3 2 2 1 2 2 3 4 3 3 2 1 2 2 2 1 0 1 1 1 0 5 3 3 3 3 3 3 4 4 5 5 6 3
4 3 2 5 3 4 3 2 2 3 2 3 2 2 4 4 3 2 3 2 2 3 2 0 3 2 2 3 2 1 2 3 4 2 2 2 1 3 4 3 2 3 2 3 6 7 8 6 6 7 7 5 5 3
4 2 4 2 5 3 4 4 3 3 2 2 2 3 3 4 4 1 2 2 3 3 4 3 2 3 2 3 1 3 3 3 3 2 2 2 1 1 3 4 4 4 3 3 4 4 7 4 5 3 3 4 4 5
1 3 4 3 1 3 3 2 2 1 2 1 1 2 4 5 5 3 3 3 3 3 3 1 2 3 3 3 3 2 3 3 7 7 4 2 2 3 3 3 3 3 3 4 4 4 5 4 5 6 7 8 9 8
3 3 3 3 3 3 3 3 1 1 3 3 3 2 4 4 4 4 3 5 4 2 6 4 4 5 6 4 3 3 3 2 3 5 7 5 4 5 4 3 3 3 4 4 5 5 6 7 6 7 8 10 11 11
2 1 1 2 4 5 4 3 4 4 2 2 3 2 3 3 5 4 2 4 4 4 5 6 5 3 5 6 6 5 6 5 6 8 8 9 9 7 4 3 4 4 5 6 6 6 8 9 9 10 11 12 13 13
Wind_Direction
289 285 274 263 260 248 248 246 245 242 239 233 237 241 233 232 232 210 125 198 192 188 242 184 174 143 119 172 154 219 95 326 52 142 143 190 144 211 120 179 170 167 167 203 172 195 251 184 104 170 203 158 190 208
294 300 284 273 262 254 241 241 239 242 234 234 234 230 236 240 234 226 233 179 211 222 269 204 206 192 182 171 138 191 167 159 166 110 124 103 113 63 152 218 173 211 181 179 183 202 213 107 129 194 169 195 194 175
291 291 289 282 265 261 254 243 239 239 234 237 236 232 232 233 236 229 199 129 195 225 228 195 215 217 162 167 161 135 285 154 158 156 156 178 170 122 158 242 86 262 153 194 87 238 231 180 125 159 201 148 130 240
286 284 280 276 269 263 254 251 240 238 237 236 235 231 231 231 232 225 199 170 206 274 226 228 348 205 177 157 177 155 139 103 104 95 111 138 150 168 201 185 194 201 143 176 263 279 150 338 135 152 190 198 242 251
286 282 277 271 265 261 256 246 246 239 238 237 231 237 229 227 225 226 160 180 188 206 284 273 308 238 178 186 159 141 143 126 124 97 119 207 124 92 334 55 243 172 174 175 209 193 145 236 268 321 308 306 339 352
286 282 275 269 262 256 248 244 242 242 238 235 237 231 228 225 218 142 225 216 193 190 237 238 161 222 160 185 173 166 163 127 121 140 177 194 242 117 153 201 239 128 104 145 225 198 197 245 279 40 2 17 360 335
295 288 276 265 257 255 249 242 237 236 238 236 235 229 227 215 206 195 177 217 186 167 211 246 236 215 182 138 125 95 104 151 126 139 147 147 194 127 142 222 136 159 202 190 157 100 276 217 231 34 20 340 337 297
303 295 271 265 257 249 242 237 234 236 231 230 235 230 224 212 211 212 209 149 189 171 176 217 214 151 165 157 179 141 142 132 194 137 72 143 101 103 239 244 236 183 188 224 155 106 117 354 258 87 20 347 323 312
303 296 321 260 248 247 236 234 232 234 229 232 234 222 210 198 180 204 187 194 204 207 186 146 164 180 164 121 124 143 139 173 133 144 168 123 158 208 223 224 173 172 170 175 116 127 158 193 231 333 358 322 288 302
323 312 351 346 226 234 232 229 224 224 232 228 202 185 155 178 135 151 165 183 206 198 150 145 41 176 177 131 137 119 123 153 170 210 125 166 220 239 179 151 138 149 147 132 118 252 161 222 206 257 246 269 281 292
345 356 351 347 251 220 216 214 220 232 219 169 160 105 167 146 97 160 205 190 153 187 168 147 171 168 212 150 137 220 148 151 164 194 142 173 252 226 136 143 136 133 144 143 100 105 132 175 243 264 268 255 275 280
334 360 360 355 345 211 204 208 200 171 98 121 106 98 104 113 177 184 174 171 153 183 168 154 174 155 228 123 112 163 157 165 185 144 122 207 241 142 159 159 155 141 137 133 124 153 235 262 286 277 273 270 264 261
337 352 3 360 346 222 201 198 181 139 115 65 99 132 129 159 200 156 171 274 170 152 162 147 153 148 143 139 134 152 166 178 122 144 201 223 179 157 145 133 125 128 129 130 136 148 124 268 333 200 271 269 285 287
339 342 5 359 355 342 190 188 173 150 102 139 145 152 164 156 222 158 191 192 203 151 167 171 160 148 151 132 126 131 110 156 155 163 226 234 191 155 134 115 122 153 150 150 159 163 187 249 278 288 256 267 274 293
341 354 6 2 4 343 182 178 140 55 49 65 43 184 196 202 82 196 268 290 245 288 152 145 130 147 124 121 141 113 151 171 188 207 217 164 144 143 141 130 137 151 167 167 162 155 179 213 210 283 287 290 292 310
350 24 360 359 21 22 169 110 61 73 58 60 34 67 333 67 268 26 70 299 357 289 146 142 173 148 153 147 136 182 150 191 223 208 159 129 128 132 124 132 158 153 171 172 159 153 167 166 175 217 307 333 333 18
15 33 341 352 25 39 41 67 74 59 89 67 23 111 117 51 6 236 162 24 346 291 166 148 141 160 104 115 167 193 194 204 166 107 16 76 125 130 128 148 155 158 151 145 117 113 145 148 105 80 40 302 344 26
14 314 353 2 31 54 54 40 77 77 64 17 67 8 84 181 266 23 330 52 292 274 50 152 117 143 175 169 207 171 118 127 78 98 99 103 99 105 145 151 149 152 139 120 124 120 94 109 100 134 251 274 53 45
320 8 6 12 56 85 61 37 30 92 72 70 68 33 353 33 335 313 324 310 257 273 296 227 111 157 217 19 347 75 138 115 138 122 91 76 113 152 160 129 125 113 119 131 123 127 129 140 148 187 240 91 118 352
359 17 13 29 42 76 71 33 20 76 82 101 50 35 313 349 340 338 356 335 300 42 46 36 46 60 2 24 344 47 74 121 114 90 59 66 157 134 134 129 118 124 107 87 86 96 81 54 42 63 96 128 129 28
38 342 9 50 48 57 79 36 56 54 100 67 9 350 350 7 354 357 338 327 65 35 74 54 71 15 329 328 21 43 77 72 84 137 159 153 223 115 88 57 109 93 115 139 125 112 110 152 200 166 132 204 243 325
333 9 41 17 72 60 80 18 83 97 85 133 122 357 34 18 347 15 302 52 52 33 360 40 49 360 28 22 7 30 19 74 56 71 71 108 121 120 128 162 123 164 141 185 143 151 191 207 167 169 162 245 262 344
9 23 48 16 69 41 337 348 62 8 65 358 11 35 17 353 325 318 71 59 100 69 30 83 98 321 103 347 53 41 40 84 79 82 78 90 90 95 110 157 152 142 129 264 143 139 173 190 177 163 242 252 320 329
27 44 33 37 27 45 349 22 26 29 35 26 35 23 352 308 321 41 70 329 305 332 21 345 59 38 15 34 41 346 340 63 96 57 42 110 106 15 179 159 154 157 181 159 130 140 155 184 179 177 263 316 289 288
66 1 25 6 5 33 33 15 357 36 52 347 45 12 348 342 44 45 46 281 311 317 320 349 36 47 119 281 302 282 278 126 126 156 266 161 126 74 34 23 44 221 147 108 150 164 194 180 193 209 250 271 281 289
65 323 48 321 348 54 338 51 31 39 25 42 16 319 328 2 49 352 260 232 232 213 203 178 168 98 333 185 164 340 252 166 116 97 266 188 166 147 162 144 150 281 191 168 154 178 190 190 208 223 243 260 270 282
61 345 335 32 125 93 49 26 75 73 56 39 321 357 360 57 315 258 287 229 211 234 200 169 137 141 193 239 258 252 231 180 173 213 251 163 179 177 153 161 199 231 154 166 168 179 195 209 224 235 248 263 253 259
132 33 57 319 36 13 113 60 48 60 280 275 54 25 128 180 230 239 208 231 193 166 129 183 202 182 177 212 202 137 61 80 60 38 43 52 181 239 210 191 203 153 147 169 180 181 198 220 242 252 253 257 269 233
39 325 96 17 19 46 61 111 198 241 201 112 133 267 257 240 237 222 245 197 139 100 92 43 299 6 15 13 55 52 134 133 134 148 216 243 212 237 183 177 188 149 166 192 226 206 210 219 226 232 240 250 268 266
321 18 74 28 62 20 260 165 218 251 223 197 229 306 298 276 249 188 118 98 138 195 205 188 195 137 184 145 259 302 263 206 206 189 196 229 274 88 152 180 195 199 195 202 232 259 286 314 321 326 298 279 276 284
316 38 64 51 139 252 234 274 310 349 18 337 321 172 253 297 304 238 194 181 148 110 111 191 259 214 177 184 177 151 288 243 215 224 222 221 223 213 206 208 208 194 195 211 225 238 250 259 254 264 269 274 276 270
11 69 104 35 306 291 20 46 335 20 329 15 295 332 321 354 297 280 193 124 112 182 223 187 190 234 209 223 202 227 219 248 213 215 223 229 230 223 218 210 200 188 205 224 232 243 249 251 260 262 271 274 273 271
37 37 57 39 2 359 328 31 16 337 7 331 277 217 224 197 249 277 284 214 186 194 202 210 224 216 213 212 215 226 223 226 233 243 235 234 234 235 219 208 207 206 218 232 238 240 247 249 258 261 261 262 267 271